AVA093 TNCC-SKBO

Flight info

Callsign AVA093
Flight time 1h 26m
Altitude 38000
Route EMAPA1K EMAPA DCT ALCOT UG431 STB DCT BUV/N0362F240 A567 VULAM VULAM7D
Aircraft A20N/M-SDE2E3FGHIRWXY/LB1

Departure

Time 2026-04-26 11:17
Airport Hato International Airport (TNCC)

Arrival

Time 2026-04-26 12:43
Airport El Dorado International Airport (SKBO)
Time Latitude Longitude Altitude Speed Heading
2026-04-26 10:53 12.18557 -68.95731 43 ft 0 kts 192°
2026-04-26 11:08 12.18559 -68.95731 43 ft 2 kts 192°
2026-04-26 11:08 12.18585 -68.95725 43 ft 4 kts 189°
2026-04-26 11:08 12.18612 -68.95722 40 ft 4 kts 185°
2026-04-26 11:09 12.18639 -68.95721 38 ft 4 kts 169°
2026-04-26 11:09 12.18659 -68.95731 40 ft 3 kts 107°
2026-04-26 11:09 12.18660 -68.95733 40 ft 1 kts 102°
2026-04-26 11:12 12.18649 -68.95720 39 ft 3 kts 161°
2026-04-26 11:12 12.18646 -68.95728 29 ft 1 kts 261°
2026-04-26 11:12 12.18669 -68.95785 40 ft 17 kts 287°
2026-04-26 11:12 12.18701 -68.95923 42 ft 22 kts 282°
2026-04-26 11:13 12.18735 -68.96092 42 ft 25 kts 281°
2026-04-26 11:13 12.18775 -68.96276 42 ft 28 kts 283°
2026-04-26 11:13 12.18816 -68.96479 40 ft 31 kts 282°
2026-04-26 11:13 12.18864 -68.96700 41 ft 33 kts 282°
2026-04-26 11:14 12.18914 -68.96936 40 ft 35 kts 281°
2026-04-26 11:14 12.18965 -68.97187 40 ft 37 kts 283°
2026-04-26 11:14 12.19019 -68.97451 39 ft 39 kts 282°
2026-04-26 11:14 12.19051 -68.97582 39 ft 11 kts 303°
2026-04-26 11:15 12.19092 -68.97585 39 ft 6 kts
2026-04-26 11:15 12.19152 -68.97577 39 ft 11 kts 11°
2026-04-26 11:15 12.19213 -68.97534 39 ft 12 kts 72°
2026-04-26 11:15 12.19209 -68.97486 39 ft 0 kts 98°
2026-04-26 11:16 12.19200 -68.97424 37 ft 34 kts 98°
2026-04-26 11:16 12.19099 -68.96939 38 ft 101 kts 102°
2026-04-26 11:16 12.18900 -68.96066 97 ft 144 kts 101°
2026-04-26 11:17 12.18670 -68.95056 595 ft 149 kts 103°
2026-04-26 11:17 12.18448 -68.94032 1405 ft 144 kts 101°
2026-04-26 11:17 12.18249 -68.93021 2209 ft 153 kts 100°
2026-04-26 11:17 12.18029 -68.91884 2763 ft 173 kts 102°
2026-04-26 11:18 12.17766 -68.90599 3343 ft 198 kts 102°
2026-04-26 11:18 12.17439 -68.89140 3971 ft 222 kts 109°
2026-04-26 11:18 12.16572 -68.87761 4580 ft 246 kts 137°
2026-04-26 11:18 12.15000 -68.86917 5266 ft 268 kts 166°
2026-04-26 11:19 12.13118 -68.86946 6236 ft 277 kts 194°
2026-04-26 11:19 12.11423 -68.87844 7162 ft 283 kts 221°
2026-04-26 11:19 12.10254 -68.89452 8116 ft 287 kts 246°
2026-04-26 11:19 12.09658 -68.91418 9100 ft 291 kts 256°
2026-04-26 11:20 12.09133 -68.93422 10039 ft 294 kts 253°
2026-04-26 11:20 12.08704 -68.94757 10486 ft 304 kts 250°
2026-04-26 11:20 12.07569 -68.97557 10953 ft 335 kts 245°
2026-04-26 11:20 12.06528 -68.99748 11518 ft 347 kts 243°
2026-04-26 11:21 12.05428 -69.01955 12394 ft 349 kts 243°
2026-04-26 11:21 12.04310 -69.04173 13260 ft 352 kts 243°
2026-04-26 11:21 12.03185 -69.06407 14062 ft 356 kts 243°
2026-04-26 11:21 12.02050 -69.08669 14807 ft 359 kts 243°
2026-04-26 11:22 12.00910 -69.10948 15551 ft 361 kts 243°
2026-04-26 11:22 11.99762 -69.13246 16245 ft 366 kts 243°
2026-04-26 11:22 11.98602 -69.15571 16948 ft 369 kts 243°
2026-04-26 11:22 11.97443 -69.17892 17603 ft 374 kts 243°
2026-04-26 11:23 11.96231 -69.20255 18269 ft 377 kts 240°
2026-04-26 11:23 11.94742 -69.22475 18840 ft 381 kts 232°
2026-04-26 11:23 11.92931 -69.24473 19412 ft 385 kts 224°
2026-04-26 11:23 11.90883 -69.26259 19977 ft 389 kts 221°
2026-04-26 11:24 11.88801 -69.28051 20527 ft 393 kts 221°
2026-04-26 11:24 11.86708 -69.29866 21073 ft 396 kts 221°
2026-04-26 11:24 11.84596 -69.31703 21627 ft 400 kts 221°
2026-04-26 11:24 11.82466 -69.33554 22152 ft 404 kts 221°
2026-04-26 11:25 11.80318 -69.35420 22667 ft 408 kts 221°
2026-04-26 11:25 11.78140 -69.37311 23186 ft 411 kts 221°
2026-04-26 11:25 11.75954 -69.39209 23664 ft 414 kts 221°
2026-04-26 11:25 11.73779 -69.41096 24145 ft 416 kts 221°
2026-04-26 11:26 11.71567 -69.43015 24587 ft 419 kts 221°
2026-04-26 11:26 11.69343 -69.44944 25021 ft 421 kts 221°
2026-04-26 11:26 11.67104 -69.46885 25469 ft 423 kts 221°
2026-04-26 11:26 11.64853 -69.48837 25907 ft 425 kts 221°
2026-04-26 11:27 11.62591 -69.50797 26338 ft 428 kts 221°
2026-04-26 11:27 11.60315 -69.52769 26758 ft 430 kts 221°
2026-04-26 11:27 11.58034 -69.54745 27196 ft 431 kts 221°
2026-04-26 11:27 11.55741 -69.56731 27577 ft 434 kts 221°
2026-04-26 11:28 11.53432 -69.58730 27984 ft 436 kts 221°
2026-04-26 11:28 11.51113 -69.60738 28382 ft 438 kts 220°
2026-04-26 11:28 11.48783 -69.62755 28780 ft 440 kts 220°
2026-04-26 11:28 11.46448 -69.64775 29156 ft 442 kts 220°
2026-04-26 11:29 11.44097 -69.66810 29525 ft 444 kts 220°
2026-04-26 11:29 11.41737 -69.68850 29911 ft 446 kts 220°
2026-04-26 11:29 11.39380 -69.70922 30248 ft 448 kts 222°
2026-04-26 11:29 11.37072 -69.73066 30579 ft 450 kts 223°
2026-04-26 11:30 11.34799 -69.75213 30891 ft 452 kts 223°
2026-04-26 11:30 11.33239 -69.76686 31136 ft 453 kts 223°
2026-04-26 11:30 11.30174 -69.79565 31723 ft 451 kts 222°
2026-04-26 11:30 11.27864 -69.81724 32185 ft 450 kts 222°
2026-04-26 11:31 11.25557 -69.83874 32646 ft 448 kts 221°
2026-04-26 11:31 11.23261 -69.86010 33100 ft 446 kts 221°
2026-04-26 11:31 11.20969 -69.88142 33540 ft 445 kts 221°
2026-04-26 11:31 11.18691 -69.90260 33982 ft 443 kts 221°
2026-04-26 11:32 11.16415 -69.92376 34343 ft 442 kts 221°
2026-04-26 11:32 11.14145 -69.94485 34693 ft 441 kts 221°
2026-04-26 11:32 11.11883 -69.96587 35034 ft 440 kts 221°
2026-04-26 11:32 11.09626 -69.98683 35371 ft 439 kts 221°
2026-04-26 11:33 11.07373 -70.00775 35698 ft 438 kts 221°
2026-04-26 11:33 11.05122 -70.02865 36040 ft 437 kts 221°
2026-04-26 11:33 11.02883 -70.04952 36371 ft 436 kts 221°
2026-04-26 11:33 11.00655 -70.07033 36684 ft 435 kts 221°
2026-04-26 11:34 10.98422 -70.09119 36973 ft 435 kts 221°
2026-04-26 11:34 10.96197 -70.11196 37269 ft 434 kts 221°
2026-04-26 11:34 10.93971 -70.13273 37554 ft 433 kts 221°
2026-04-26 11:34 10.91746 -70.15348 37839 ft 433 kts 221°
2026-04-26 11:35 10.89528 -70.17416 37965 ft 432 kts 221°
2026-04-26 11:35 10.87312 -70.19481 37972 ft 432 kts 221°
2026-04-26 11:35 10.83637 -70.22906 37972 ft 431 kts 221°
2026-04-26 11:36 10.78466 -70.27722 37974 ft 432 kts 221°
2026-04-26 11:36 10.74038 -70.31844 37980 ft 432 kts 221°
2026-04-26 11:37 10.69634 -70.35943 37982 ft 432 kts 221°
2026-04-26 11:37 10.65204 -70.40087 37986 ft 432 kts 221°
2026-04-26 11:38 10.60766 -70.44220 37988 ft 433 kts 221°
2026-04-26 11:38 10.56309 -70.48346 37987 ft 433 kts 221°
2026-04-26 11:39 10.51846 -70.52479 37991 ft 434 kts 221°
2026-04-26 11:39 10.47383 -70.56613 37985 ft 434 kts 221°
2026-04-26 11:40 10.42917 -70.60747 37984 ft 434 kts 221°
2026-04-26 11:40 10.38448 -70.64883 37984 ft 434 kts 221°
2026-04-26 11:42 10.20580 -70.81403 37970 ft 436 kts 221°
2026-04-26 11:43 10.16086 -70.85555 37967 ft 436 kts 221°
2026-04-26 11:43 10.11593 -70.89703 37958 ft 437 kts 221°
2026-04-26 11:44 10.07097 -70.93855 37956 ft 437 kts 221°
2026-04-26 11:44 10.02588 -70.98018 37952 ft 438 kts 221°
2026-04-26 11:45 9.98080 -71.02178 37944 ft 438 kts 221°
2026-04-26 11:45 9.93599 -71.06310 37936 ft 438 kts 221°
2026-04-26 11:46 9.89086 -71.10471 37932 ft 438 kts 221°
2026-04-26 11:46 9.84561 -71.14640 37927 ft 438 kts 221°
2026-04-26 11:47 9.80046 -71.18799 37928 ft 439 kts 221°
2026-04-26 11:47 9.75529 -71.22959 37924 ft 439 kts 221°
2026-04-26 11:48 9.71008 -71.27119 37925 ft 439 kts 221°
2026-04-26 11:48 9.66485 -71.31279 37927 ft 439 kts 221°
2026-04-26 11:49 9.61958 -71.35442 37924 ft 439 kts 221°
2026-04-26 11:49 9.57422 -71.39611 37925 ft 439 kts 221°
2026-04-26 11:50 9.52894 -71.43772 37925 ft 440 kts 221°
2026-04-26 11:50 9.48387 -71.47912 37925 ft 440 kts 221°
2026-04-26 11:51 9.43849 -71.52078 37925 ft 440 kts 221°
2026-04-26 11:51 9.39311 -71.56243 37927 ft 440 kts 221°
2026-04-26 11:52 9.35527 -71.59715 37932 ft 440 kts 221°
2026-04-26 11:52 9.30217 -71.64584 37937 ft 440 kts 221°
2026-04-26 11:53 9.26438 -71.68050 37938 ft 440 kts 221°
2026-04-26 11:54 9.19629 -71.74289 37934 ft 440 kts 221°
2026-04-26 11:54 9.15086 -71.78451 37935 ft 440 kts 221°
2026-04-26 11:55 9.10578 -71.82580 37937 ft 440 kts 221°
2026-04-26 11:55 9.06041 -71.86733 37937 ft 439 kts 221°
2026-04-26 11:56 9.01505 -71.90883 37936 ft 439 kts 221°
2026-04-26 11:56 8.96699 -71.94689 37935 ft 439 kts 212°
2026-04-26 11:57 8.91411 -71.97761 37935 ft 438 kts 208°
2026-04-26 11:57 8.86076 -72.00752 37932 ft 438 kts 208°
2026-04-26 11:58 8.80747 -72.03746 37936 ft 438 kts 208°
2026-04-26 11:58 8.75422 -72.06734 37936 ft 438 kts 208°
2026-04-26 11:59 8.70127 -72.09703 37935 ft 437 kts 208°
2026-04-26 11:59 8.64807 -72.12685 37935 ft 437 kts 208°
2026-04-26 12:00 8.59486 -72.15667 37938 ft 437 kts 208°
2026-04-26 12:00 8.54165 -72.18647 37939 ft 437 kts 208°
2026-04-26 12:01 8.48846 -72.21626 37947 ft 437 kts 208°
2026-04-26 12:01 8.43523 -72.24605 37953 ft 437 kts 208°
2026-04-26 12:02 8.38201 -72.27584 37960 ft 437 kts 208°
2026-04-26 12:02 8.32877 -72.30563 37962 ft 437 kts 208°
2026-04-26 12:03 8.27581 -72.33524 37970 ft 438 kts 208°
2026-04-26 12:03 8.22245 -72.36508 37977 ft 438 kts 208°
2026-04-26 12:04 8.16904 -72.39493 37995 ft 438 kts 208°
2026-04-26 12:04 8.11564 -72.42476 38012 ft 438 kts 208°
2026-04-26 12:05 8.06221 -72.45461 38019 ft 439 kts 208°
2026-04-26 12:05 8.00911 -72.48426 38023 ft 439 kts 208°
2026-04-26 12:06 7.95568 -72.51410 38023 ft 439 kts 208°
2026-04-26 12:06 7.90222 -72.54394 38027 ft 439 kts 208°
2026-04-26 12:07 7.84868 -72.57381 38023 ft 439 kts 208°
2026-04-26 12:07 7.79564 -72.60339 38023 ft 438 kts 208°
2026-04-26 12:08 7.74223 -72.63317 38031 ft 438 kts 208°
2026-04-26 12:08 7.68876 -72.66298 38041 ft 438 kts 208°
2026-04-26 12:09 7.63538 -72.69273 38064 ft 438 kts 208°
2026-04-26 12:09 7.58198 -72.72248 38076 ft 438 kts 208°
2026-04-26 12:10 7.52891 -72.75204 38086 ft 439 kts 208°
2026-04-26 12:10 7.47549 -72.78178 38079 ft 438 kts 208°
2026-04-26 12:11 7.42208 -72.81151 38097 ft 439 kts 208°
2026-04-26 12:11 7.36863 -72.84127 38097 ft 438 kts 208°
2026-04-26 12:12 7.31523 -72.87097 38095 ft 439 kts 208°
2026-04-26 12:12 7.26175 -72.90071 38095 ft 438 kts 208°
2026-04-26 12:13 7.20830 -72.93043 38091 ft 439 kts 208°
2026-04-26 12:13 7.15485 -72.96014 38086 ft 438 kts 208°
2026-04-26 12:14 7.10177 -72.98964 38088 ft 439 kts 208°
2026-04-26 12:14 7.04835 -73.01931 38087 ft 438 kts 208°
2026-04-26 12:15 6.99492 -73.04900 38081 ft 439 kts 208°
2026-04-26 12:15 6.94142 -73.07871 38073 ft 438 kts 208°
2026-04-26 12:16 6.88804 -73.10834 38059 ft 438 kts 208°
2026-04-26 12:16 6.83464 -73.13797 38040 ft 438 kts 208°
2026-04-26 12:17 6.78129 -73.16756 38024 ft 438 kts 208°
2026-04-26 12:17 6.72826 -73.19698 38018 ft 438 kts 209°
2026-04-26 12:18 6.67488 -73.22657 38020 ft 438 kts 209°
2026-04-26 12:18 6.62147 -73.25617 38027 ft 438 kts 209°
2026-04-26 12:19 6.56802 -73.28579 38039 ft 439 kts 209°
2026-04-26 12:19 6.51455 -73.31542 38038 ft 439 kts 209°
2026-04-26 12:20 6.46135 -73.34489 38045 ft 439 kts 209°
2026-04-26 12:20 6.40750 -73.37471 38048 ft 439 kts 209°
2026-04-26 12:21 6.35436 -73.40414 38059 ft 439 kts 209°
2026-04-26 12:21 6.30085 -73.43377 38048 ft 439 kts 209°
2026-04-26 12:22 6.24742 -73.46334 37717 ft 438 kts 209°
2026-04-26 12:22 6.22071 -73.47813 37458 ft 439 kts 209°
2026-04-26 12:22 6.19382 -73.49301 37211 ft 441 kts 209°
2026-04-26 12:22 6.16695 -73.50788 36959 ft 442 kts 209°
2026-04-26 12:23 6.13999 -73.52280 36718 ft 443 kts 208°
2026-04-26 12:23 6.11297 -73.53774 36476 ft 445 kts 208°
2026-04-26 12:23 6.08576 -73.55279 36235 ft 446 kts 208°
2026-04-26 12:23 6.05852 -73.56787 36000 ft 447 kts 208°
2026-04-26 12:24 6.03119 -73.58299 35767 ft 449 kts 208°
2026-04-26 12:24 6.00386 -73.59811 35436 ft 451 kts 208°
2026-04-26 12:24 5.97622 -73.61340 34712 ft 456 kts 207°
2026-04-26 12:25 5.91954 -73.64476 32875 ft 466 kts 207°
2026-04-26 12:25 5.89138 -73.66032 32001 ft 468 kts 207°
2026-04-26 12:25 5.86249 -73.67629 31065 ft 468 kts 207°
2026-04-26 12:25 5.83462 -73.69170 30302 ft 458 kts 207°
2026-04-26 12:26 5.80664 -73.70717 29683 ft 450 kts 207°
2026-04-26 12:26 5.77973 -73.72204 29078 ft 444 kts 207°
2026-04-26 12:26 5.75281 -73.73690 28468 ft 439 kts 207°
2026-04-26 12:26 5.72620 -73.75159 27867 ft 435 kts 207°
2026-04-26 12:27 5.69981 -73.76616 27264 ft 431 kts 207°
2026-04-26 12:27 5.67351 -73.78066 26637 ft 429 kts 207°
2026-04-26 12:27 5.64744 -73.79504 26010 ft 426 kts 207°
2026-04-26 12:27 5.62154 -73.80930 25443 ft 423 kts 207°
2026-04-26 12:28 5.59575 -73.82351 24850 ft 421 kts 208°
2026-04-26 12:28 5.57008 -73.83769 24250 ft 420 kts 208°
2026-04-26 12:28 5.54616 -73.85447 23619 ft 420 kts 221°
2026-04-26 12:28 5.52673 -73.87614 23012 ft 417 kts 234°
2026-04-26 12:29 5.51261 -73.90141 22383 ft 414 kts 245°
2026-04-26 12:29 5.50081 -73.92754 21776 ft 410 kts 245°
2026-04-26 12:29 5.47732 -73.97933 20567 ft 404 kts 245°
2026-04-26 12:30 5.46571 -74.00487 19943 ft 401 kts 245°
2026-04-26 12:30 5.45419 -74.03024 19335 ft 399 kts 245°
2026-04-26 12:30 5.44272 -74.05545 18747 ft 395 kts 245°
2026-04-26 12:31 5.42005 -74.10531 17534 ft 387 kts 245°
2026-04-26 12:31 5.40907 -74.12944 16871 ft 385 kts 245°
2026-04-26 12:31 5.39775 -74.15429 15981 ft 389 kts 246°
2026-04-26 12:31 5.38668 -74.17857 15282 ft 381 kts 246°
2026-04-26 12:32 5.37590 -74.20219 14813 ft 365 kts 246°
2026-04-26 12:32 5.36533 -74.22534 14230 ft 364 kts 246°
2026-04-26 12:32 5.34449 -74.27108 13123 ft 357 kts 246°
2026-04-26 12:33 5.33419 -74.29368 12579 ft 354 kts 246°
2026-04-26 12:33 5.32405 -74.31593 12222 ft 345 kts 246°
2026-04-26 12:33 5.31433 -74.33725 12036 ft 325 kts 246°
2026-04-26 12:33 5.30487 -74.35709 11805 ft 307 kts 238°
2026-04-26 12:34 5.29064 -74.37239 11732 ft 304 kts 214°
2026-04-26 12:34 5.27112 -74.38064 11727 ft 306 kts 190°
2026-04-26 12:34 5.24995 -74.38046 11732 ft 306 kts 173°
2026-04-26 12:34 5.22913 -74.37752 11739 ft 306 kts 172°
2026-04-26 12:35 5.20807 -74.37432 11744 ft 306 kts 172°
2026-04-26 12:35 5.18706 -74.37117 11763 ft 306 kts 172°
2026-04-26 12:35 5.16597 -74.36809 11756 ft 306 kts 172°
2026-04-26 12:35 5.14492 -74.36508 11762 ft 305 kts 172°
2026-04-26 12:36 5.12385 -74.36211 11767 ft 306 kts 172°
2026-04-26 12:36 5.10274 -74.35915 11772 ft 306 kts 172°
2026-04-26 12:36 5.08145 -74.35618 11781 ft 320 kts 172°
2026-04-26 12:36 5.05825 -74.35294 11785 ft 350 kts 172°
2026-04-26 12:37 5.03395 -74.34954 11793 ft 353 kts 172°
2026-04-26 12:37 5.00957 -74.34612 11810 ft 353 kts 172°
2026-04-26 12:37 4.98520 -74.34271 11826 ft 354 kts 172°
2026-04-26 12:37 4.96081 -74.33929 11846 ft 353 kts 172°
2026-04-26 12:38 4.93647 -74.33588 11859 ft 351 kts 172°
2026-04-26 12:38 4.91296 -74.33259 11874 ft 328 kts 172°
2026-04-26 12:38 4.89146 -74.32957 11893 ft 306 kts 172°
2026-04-26 12:38 4.87086 -74.32668 11905 ft 292 kts 172°
2026-04-26 12:39 4.85155 -74.32225 11872 ft 278 kts 155°
2026-04-26 12:39 4.83601 -74.31173 11791 ft 264 kts 136°
2026-04-26 12:39 4.82393 -74.29858 11674 ft 250 kts 129°
2026-04-26 12:39 4.81356 -74.28510 11555 ft 239 kts 126°
2026-04-26 12:40 4.80364 -74.27190 11282 ft 236 kts 127°
2026-04-26 12:40 4.79383 -74.25886 10999 ft 231 kts 127°
2026-04-26 12:40 4.78759 -74.25058 10860 ft 217 kts 127°
2026-04-26 12:40 4.77890 -74.23904 10588 ft 198 kts 127°
2026-04-26 12:41 4.77102 -74.22857 10368 ft 177 kts 126°
2026-04-26 12:41 4.76391 -74.21912 10103 ft 161 kts 126°
2026-04-26 12:41 4.75742 -74.21041 9888 ft 155 kts 126°
2026-04-26 12:41 4.75100 -74.20178 9697 ft 156 kts 126°
2026-04-26 12:42 4.74446 -74.19315 9517 ft 155 kts 127°
2026-04-26 12:42 4.73793 -74.18461 9280 ft 155 kts 127°
2026-04-26 12:42 4.73137 -74.17598 9032 ft 154 kts 126°
2026-04-26 12:42 4.72501 -74.16747 8806 ft 154 kts 126°
2026-04-26 12:43 4.71850 -74.15884 8572 ft 154 kts 125°
2026-04-26 12:43 4.71209 -74.15034 8399 ft 152 kts 126°
2026-04-26 12:43 4.70631 -74.14269 8370 ft 113 kts 126°
2026-04-26 12:43 4.70284 -74.13815 8367 ft 41 kts 128°
2026-04-26 12:44 4.70140 -74.13687 8369 ft 26 kts 145°
2026-04-26 12:44 4.70029 -74.13632 8370 ft 14 kts 158°
2026-04-26 12:44 4.69935 -74.13599 8369 ft 6 kts 187°
2026-04-26 12:44 4.69897 -74.13625 8369 ft 8 kts 238°
2026-04-26 12:45 4.69880 -74.13689 8370 ft 11 kts 261°
2026-04-26 12:45 4.69907 -74.13761 8370 ft 12 kts 307°
2026-04-26 12:45 4.69963 -74.13834 8370 ft 14 kts 307°
2026-04-26 12:45 4.70025 -74.13915 8370 ft 16 kts 307°
2026-04-26 12:46 4.70078 -74.13985 8369 ft 10 kts 302°
2026-04-26 12:46 4.70064 -74.14041 8369 ft 10 kts 242°
2026-04-26 12:46 4.70039 -74.14089 8370 ft 4 kts 198°
2026-04-26 12:46 4.70015 -74.14107 8369 ft 6 kts 220°
2026-04-26 12:47 4.69994 -74.14124 8369 ft 1 kts 217°
2026-04-26 12:47 4.69990 -74.14127 8369 ft 0 kts 217°
2026-04-26 12:47 4.69989 -74.14127 8369 ft 0 kts 217°